Location: Celina Division
(33.3022°N, 96.7580°W)
Time: 01:10:53
(UTC+00:00)

Nadezhda 4 Rocket - Pass Details

Date: 09 July 2022
Orbit: 949 x 992 km, 82.9° (Epoch: 08 August)

Event Time Altitude Azimuth Distance (km) Brightness Sun altitude
Rises 09:45:18 0° 137° (SE) 3,639 7.0 -17.8°
Reaches altitude 10° 09:49:01 10° 115° (ESE) 2,689 6.6 -17.3°
Maximum altitude 09:52:12 15° 83° (E) 2,359 6.8 -16.8°
Drops below altitude 10° 09:55:22 10° 51° (NE) 2,685 7.7 -16.3°
Sets 09:59:03 0° 29° (NNE) 3,630 8.4 -15.7°
